Location: Newark
(37.8333°N, 119.5000°W)
Time: 00:21:56
(UTC+00:00)

Tiros 1 despin weight - Pass Details

Date: 02 September 2019
Orbit: 593 x 643 km, 48.2° (Epoch: 22 October)

Event Time Altitude Azimuth Distance (km) Brightness Sun altitude
Rises 04:38:22 0° 270° (W) 2,821 ? -24.7°
Reaches altitude 10° 04:40:53 10° 281° (W) 1,921 ? -25.1°
Maximum altitude 04:44:44 29° 342° (NNW) 1,097 ? -25.8°
Enters shadow 04:46:40 21° 24° (NNE) 1,356 ? -26.1°
